Showing default

ORBCOMM FM 31, 25981

Orbit data source: Space-Track

ORBCOMM FM 31, 25981 is a payload satellite owned by Orbcomm (US) in LEO that was launched on Sat, 04 Dec 1999 UTC via a PEGASUS XL/HAPS launch vehicle from the Air Force Eastern Test Range (AFETR). Payload-class satellites include a variety of spacecraft equipped with specific instruments for various scientific and technological missions. These include communications satellites like Starlink; space stations such as the ISS; scientific satellites like the Hubble; Earth observation satellites from companies like Planet Labs, Umbra, and HawkEye 360; GPS; miniature CubeSats for education and research; and military/defense satellites.

Loading next visibility...
Identifier
25981, 1999-065B
Orbit
LEO
Country
Flag of USUS / ORB
Related business
Manufacturer
OSC-Germantown
Mission
Non-operational Commercial Communications
Bus & Motor
MICROSTAR, Unknown motor
Mass
44 kg wet, 44 kg dry
Launch date (UTC)
1999-12-04 (27 years ago)
Launch vehicle
PEGASUS XL/HAPS
Launch site
Air Force Eastern Test Range (AFETR)
Object type
Payload
Rocket body
Debris
Shape & HBR
Cyl + 2 Pan, 4.2 m
Radar Cross Section
1.484 m², Medium (>0.1 m² and < 1m²)

Expand to show TLE details & history
Last TLE update: 2 days ago

TLE from 2 days ago
0 ORBCOMM FM 31
1 25981U 99065B   26171.26966596  .00000441  00000-0  19079-3 0  9998
2 25981  45.0208 139.6256 0002674  44.4352 315.6711 14.38066839386974
Epoch: 2026-06-20T06:28Z
TLE epoch observation values (Epoch: 2026-06-20T06:28:19.138Z)
Latitude
-0.00002°
Longitude
134.05913°
Altitude
763.528 km
Speed
7.475 km/s
True Right ascension
09h 18m 30s
True Declination
0° 00' 00"
Sunlit
Object was in daylight at epoch
Visualization orbit readout
Latitude
Unknown
Longitude
Unknown
Altitude
Unknown
Speed
Unknown
Apparent Right ascension
Unknown
Apparent Declination
Unknown
Sunlit
N/A
Visualization observer readout
Local Sidereal Time
23:09:10
Azimuth
Unknown
Elevation
Unknown
Doppler factor
Unknown
Orbital elements
Apogee altitude
768.346 km
Perigee altitude
764.525 km
Semi-major axis
7,144.572 km
Eccentricity
0.00027
Inclination
45.0208°
RAAN
139.6256°
Arg. of periapsis
44.4352°
True anomaly
315.64968°
Mean anomaly
315.6711°
Eccentric anomaly
315.66039°
Mean motion
3.59401 °/min
Orbital period
100.17 mins
BSTAR
0.00019079
Loading maneuver chart data...
Computing Atmospheric mass density...

Documentation

Showing up to 5 results
|